DELTA 1 R/B

基本信息
目录编号:
7946
目录名称:
DELTA 1 R/B
国际标识:
1975-052B
轨道中心:
EARTH
物体状态:
在轨
发射日期:
1975-06-12 UTC
国别:
美国 (US)
轨道信息
数据来源: 国际轨道数据
星历时间: 2026-09-11T12:15:42+0800
半长轴: 7436.365km
偏心率: 0.004572
轨道倾角: 99.631°
近地点辐角: 153.957°
升交点赤经: 146.216°
平近点角: 0.011°
近地点: 1024.228km
远地点: 1092.228km
周期: 106.365分钟
每日圈数: 13.538226
详细信息
发射场:
AFWTR
轨道高度:
LEO
数据来源:
AOE Integration Group
参考系:
TEME
时间系统:
UTC
历元类型:
SGP4
2D轨道图
3D轨道图
轨道高度分析图
轨道倾角分析图
轨道综合分析图
查看轨道综合分析图